Location: Dattensoll
(49.9928°N, 9.8954°E)
Time: 00:44:34
(UTC+00:00)

NOSS 3-1 (C) - Pass Details

Date: 19 May 2025
Orbit: 625 x 1577 km, 63.4° (Epoch: 18 June)

Event Time Altitude Azimuth Distance (km) Brightness Sun altitude
Rises 20:17:20 0° 198° (SSW) 2,949 5.7 -9.6°
Reaches altitude 10° 20:19:33 10° 191° (S) 2,096 4.9 -9.8°
Maximum altitude 20:23:59 43° 121° (ESE) 1,044 3.3 -10.3°
Drops below altitude 10° 20:29:16 10° 51° (NE) 2,506 5.7 -10.8°
Sets 20:32:08 0° 45° (NE) 3,601 6.5 -11.1°
